Preview of NWS' New Version of Forecast
This preview is not operational and should not be used for support decisions.

Regional Weather Roundup (RWR)

Issued by National Weather Service (NWS)

                            
000
ASUS43 KBIS 182102
RWRND 

NORTH DAKOTA REGIONAL WEATHER ROUNDUP
NATIONAL WEATHER SERVICE BISMARCK ND
400 PM CDT THU JUL 18 2019

NOTE: "FAIR" INDICATES FEW OR NO CLOUDS BELOW 12,000 FEET WITH NO
SIGNIFICANT WEATHER AND/OR OBSTRUCTIONS TO VISIBILITY.


NDZ001>003-009>011-017-182200-
NORTHWEST NORTH DAKOTA
  
CITY           SKY/WX    TMP DP  RH WIND       PRES   REMARKS
WILLISTON      FAIR      84  49  29 W17G35    29.64S                  
MINOT          FAIR      82  47  29 W22G35    29.61S                  
MINOT AFB      FAIR      81  51  34 W18G26    29.58F                  
$$
 
NDZ018>021-031>035-040>046-182200-
SOUTHWEST NORTH DAKOTA
  
CITY           SKY/WX    TMP DP  RH WIND       PRES   REMARKS
BISMARCK       FAIR      80  65  59 SW12      29.67F                  
DICKINSON      FAIR      82  55  39 W12       29.69F                  
GARRISON         N/A     80  54  40 W12G20    29.65R                  
HETTINGER ARPT FAIR      84  55  36 CALM      29.73S                  
$$
 
NDZ004>008-012>016-024-026-027-054-182200-
NORTHEAST NORTH DAKOTA
  
CITY           SKY/WX    TMP DP  RH WIND       PRES   REMARKS
GRAND FORKS    FAIR      86  64  47 W15G23    29.54S                  
GRND FRKS AFB  FAIR      85  64  49 W9        29.56S                  
DEVILS LAKE    FAIR      83  54  36 W21G28    29.59S                  
$$
 
NDZ022-023-025-028>030-036>039-047>053-182200-
SOUTHEAST NORTH DAKOTA
  
CITY           SKY/WX    TMP DP  RH WIND       PRES   REMARKS
FARGO          FAIR      85  65  51 W17G26    29.61R                  
JAMESTOWN      FAIR      80  66  62 SW10      29.65S                  
$$